Wind_Speed
2 6 7 3 3 4 6 6 6 6 5 5 4 4 4 3 1 5 5 5 2 4 6 5 3 5 4 5 5 5 5 5 4 4 3 1 2 5 4 3 2 1 3 2 3 4 4 4 2 1 2 2 3 2 2 3 4 3 3 2 3 3 3 4 5 5 5 5 6 6 6 7 7 8 8 9 10 11 11 12 12 11 10 10 11 12
3 8 4 3 5 6 7 7 5 5 3 4 4 2 3 2 3 5 4 5 5 5 4 6 5 4 4 3 4 5 6 6 4 4 3 1 2 4 4 5 4 3 4 4 5 5 5 4 3 2 2 1 2 1 2 3 3 3 3 2 2 3 3 3 4 5 5 5 6 6 5 5 6 7 8 8 8 10 11 11 11 10 9 8 9 10
7 9 0 6 5 6 6 5 4 5 4 4 3 2 2 2 3 5 4 5 5 4 3 7 5 4 4 3 3 4 5 3 2 1 2 2 3 4 5 6 6 6 6 5 6 6 6 6 5 5 5 5 4 4 4 4 4 4 4 3 3 3 3 4 4 4 5 6 6 6 5 5 7 8 8 8 9 11 11 11 10 10 9 9 8 9
8 4 4 5 4 6 5 3 4 5 5 4 4 3 1 2 1 1 4 6 5 1 2 6 3 2 3 3 4 3 2 3 3 2 3 4 5 6 7 7 6 7 6 6 7 7 7 7 8 8 7 7 6 7 6 6 5 5 5 5 4 3 4 4 4 5 5 6 6 6 6 5 6 8 8 9 10 10 11 10 10 9 9 9 8 10
9 2 7 5 3 5 7 4 4 6 5 3 2 5 3 2 3 3 5 7 6 2 3 6 2 2 5 5 5 4 3 3 4 5 6 7 7 7 8 8 7 7 6 6 7 7 7 9 9 9 9 8 9 9 9 8 7 6 5 5 4 3 4 4 4 5 4 5 5 5 6 5 5 6 7 8 8 7 8 9 9 9 9 10 10 11
9 3 3 6 5 5 8 4 2 5 5 2 3 4 6 4 3 2 6 7 5 4 7 8 4 3 6 6 5 6 5 5 5 6 8 8 7 7 8 8 7 7 6 6 7 7 8 9 9 10 10 10 10 10 10 10 9 8 6 5 4 4 4 5 5 5 4 4 5 5 6 6 6 6 6 7 8 7 7 8 8 9 9 10 12 12
4 2 1 6 6 6 8 4 2 4 7 1 4 5 5 4 3 2 6 6 3 0 6 9 6 0 5 6 7 6 6 7 6 7 9 7 6 7 7 7 7 7 7 7 8 8 9 10 10 11 11 11 11 10 10 10 10 9 7 6 6 6 6 6 6 5 4 4 5 5 6 7 7 7 6 7 9 8 7 7 8 8 9 10 11 12
5 5 5 6 7 7 7 2 4 3 7 1 5 4 3 4 5 4 6 7 3 2 5 7 5 3 3 6 8 7 7 8 8 8 9 7 7 7 7 9 9 8 7 8 8 9 10 11 11 11 11 11 11 10 10 10 10 9 9 8 8 7 7 7 7 7 6 6 6 6 6 6 7 7 7 8 9 8 7 7 7 8 9 10 10 10
5 9 8 6 7 6 3 4 6 4 5 3 5 3 3 4 5 5 6 5 2 2 4 6 5 5 2 7 8 8 8 9 9 10 9 8 8 7 8 10 10 9 8 8 9 9 10 11 12 12 12 11 11 10 10 9 9 9 10 10 9 8 8 8 9 8 8 7 7 7 7 7 7 7 7 7 7 8 8 9 9 9 10 9 8 8
4 4 3 4 7 4 3 6 4 5 3 4 2 1 2 3 4 4 6 4 2 5 4 4 5 6 1 6 7 7 7 8 9 10 9 8 8 7 8 9 9 9 8 8 9 10 11 11 11 12 12 12 12 10 10 10 9 10 10 10 11 10 10 10 10 10 9 8 8 8 8 8 8 8 9 8 8 9 9 10 10 9 9 9 7 7
3 2 0 4 6 3 3 4 2 3 1 5 4 4 4 4 3 3 3 3 4 4 2 1 4 5 3 4 6 5 5 8 10 9 9 9 8 8 7 8 8 8 8 8 9 10 11 11 11 12 12 12 12 11 11 11 11 11 11 11 12 12 12 12 12 11 10 10 9 9 9 8 9 9 10 10 10 10 10 11 11 10 9 8 7 6
6 5 4 4 3 2 2 2 2 2 4 5 5 4 4 3 3 3 3 3 5 3 1 2 4 5 5 1 5 6 6 8 9 10 12 11 10 8 6 7 8 7 8 8 8 9 10 10 11 12 12 11 11 12 12 11 11 12 12 13 13 14 14 13 13 12 11 11 11 10 10 9 9 9 9 10 10 10 10 9 9 10 10 9 7 7
9 8 5 4 3 4 7 5 4 5 5 5 5 5 5 3 2 4 3 3 5 1 3 2 2 5 4 2 5 8 8 7 6 9 12 12 10 9 7 7 7 6 8 8 7 8 8 9 10 10 10 10 11 11 12 12 12 12 13 14 14 14 14 13 13 12 12 11 10 10 10 9 9 8 8 8 9 8 8 8 8 9 10 10 9 8
8 6 6 7 5 5 8 7 5 4 6 7 6 5 5 5 4 6 4 3 4 1 4 1 2 4 3 3 5 7 8 6 6 8 11 12 11 10 8 8 7 7 7 7 7 7 7 9 10 9 9 9 10 11 12 12 12 13 13 13 13 14 13 13 13 13 13 12 10 9 9 9 8 8 8 8 8 8 8 9 9 9 9 10 10 9
9 6 6 6 3 5 8 8 6 4 5 7 4 5 6 5 5 6 5 6 5 1 4 3 2 3 1 4 5 5 6 6 7 9 10 11 10 9 8 8 8 8 7 7 7 8 9 10 9 9 9 10 10 11 11 12 12 12 12 12 13 13 13 13 13 13 13 12 11 10 9 9 8 9 9 9 10 10 9 9 10 10 10 10 10 10
8 3 6 3 2 2 6 4 4 7 5 4 3 6 5 4 4 5 4 5 7 4 2 2 3 3 2 6 7 6 6 8 9 11 12 11 10 9 8 8 7 7 7 7 7 8 10 11 10 9 10 10 11 11 11 11 11 11 12 12 12 12 12 13 12 12 12 11 11 10 10 9 8 8 9 9 10 11 10 10 10 10 10 10 10 11
7 2 8 5 3 1 2 2 3 7 4 2 4 4 2 3 4 5 3 1 4 6 2 1 5 1 4 5 7 8 9 10 11 12 12 11 11 10 7 7 7 7 7 7 8 9 10 11 10 10 10 10 10 11 10 10 10 11 11 12 13 13 13 12 12 12 11 10 10 10 10 9 9 9 9 9 10 10 10 11 10 10 10 10 10 11
4 3 7 4 4 5 1 2 3 3 4 4 4 1 4 0 4 4 4 3 4 6 3 2 6 3 2 1 5 9 10 11 12 12 12 12 11 9 8 7 7 8 8 9 10 10 10 11 11 11 11 11 11 11 10 10 10 11 11 12 12 12 12 12 11 11 10 10 9 9 9 9 9 9 9 9 10 10 10 10 10 10 11 11 11 11
3 2 6 4 3 6 3 4 4 3 1 4 2 2 2 4 4 2 4 6 5 6 4 3 5 5 1 0 4 10 12 13 13 12 12 13 11 9 8 8 8 9 8 9 9 9 10 12 12 11 11 11 11 11 11 10 10 10 11 11 11 12 12 11 11 10 10 10 9 9 9 8 8 8 8 8 9 9 9 10 10 10 10 11 11 11
2 2 4 6 4 4 6 6 4 4 4 1 1 3 2 5 5 3 4 5 6 7 6 4 4 2 2 4 2 6 12 14 14 13 12 12 11 9 8 8 7 8 7 8 8 9 11 13 13 12 11 11 11 10 10 9 9 9 9 9 10 10 11 11 11 10 10 10 10 10 10 9 8 8 8 8 9 9 9 10 10 10 10 10 10 11
2 3 2 6 6 5 4 2 3 3 1 3 4 4 3 2 3 4 4 4 6 7 6 6 5 1 4 4 6 1 9 13 13 13 11 11 11 10 8 8 7 8 8 8 9 10 12 13 13 12 10 9 9 8 8 8 7 7 7 7 8 9 9 9 10 11 10 10 10 11 11 10 10 9 9 9 10 10 10 9 9 10 10 10 9 10
4 3 2 4 6 4 2 5 4 4 4 4 5 5 4 4 4 5 6 4 4 6 6 7 6 1 4 3 4 2 6 12 13 13 12 11 11 10 8 8 8 8 8 8 9 10 11 12 12 11 9 8 7 7 7 6 6 6 6 6 7 8 8 9 9 10 10 10 10 10 11 10 10 10 10 10 10 10 10 10 10 9 10 10 9 9
1 3 4 3 1 2 6 6 2 2 3 3 3 4 5 5 5 6 7 5 4 5 4 6 6 1 4 4 3 1 5 10 11 12 12 10 10 9 9 9 8 7 7 8 9 10 10 11 10 10 9 7 6 5 5 5 4 4 5 5 6 6 7 8 8 8 9 9 9 10 10 10 10 11 11 11 10 10 10 10 10 10 10 10 10 10
1 3 5 2 1 3 5 5 3 1 2 4 1 2 4 5 4 6 6 5 6 6 4 6 5 2 5 4 2 3 7 10 10 11 12 10 8 8 9 9 8 7 7 7 9 9 9 9 9 8 8 7 6 4 4 3 3 3 4 4 5 6 7 7 8 8 9 9 9 10 10 11 11 11 12 11 11 11 11 10 10 10 10 10 11 11
4 4 4 3 3 4 4 4 5 4 4 4 1 2 2 3 3 5 4 4 5 6 7 8 6 3 5 3 3 5 8 9 9 9 9 8 8 8 9 8 7 6 7 7 7 7 7 7 6 6 6 5 5 4 3 2 2 2 3 4 5 6 8 8 8 9 9 10 10 10 11 11 12 12 12 12 11 11 12 11 10 11 11 11 11 11
4 2 3 4 5 5 4 3 2 2 3 2 1 1 2 3 3 4 4 5 5 5 6 8 5 3 6 4 5 6 7 8 8 7 7 7 7 8 8 7 6 5 6 6 6 5 5 5 4 4 4 4 4 3 4 3 3 3 3 4 5 6 8 8 8 9 9 11 11 11 11 11 11 12 12 12 12 12 12 12 12 12 12 12 12 12
3 1 1 2 4 3 2 2 1 4 4 1 1 1 2 3 3 5 6 5 5 5 5 4 4 2 5 5 5 6 6 6 6 5 5 6 6 7 7 6 6 4 4 5 4 3 3 2 2 2 2 3 3 3 4 4 4 4 4 5 6 7 7 8 9 10 10 11 12 11 11 12 11 12 12 12 13 13 13 13 13 13 13 13 13 13
3 3 2 1 2 3 3 4 3 1 1 2 2 2 3 3 3 5 5 4 5 7 5 4 3 0 4 6 7 8 8 8 8 8 8 7 6 6 5 5 5 4 3 3 2 2 1 1 1 2 2 3 3 4 4 4 5 5 4 6 7 8 8 9 10 11 11 12 12 12 12 12 12 12 12 12 13 14 14 14 14 14 14 14 14 14
3 3 2 2 4 5 5 5 4 4 5 5 4 4 5 5 4 4 5 5 5 6 4 4 3 3 7 10 10 9 8 7 7 6 5 4 5 6 4 0 3 3 2 2 1 1 2 2 3 3 3 3 4 5 5 5 5 5 6 7 8 9 10 10 11 12 12 13 13 12 13 13 13 12 13 13 14 14 15 16 16 16 16 15 15 14
3 2 3 4 6 6 5 5 5 5 6 6 6 5 5 6 6 6 6 6 4 4 4 5 6 7 8 8 7 5 5 6 7 5 4 5 3 3 6 3 3 3 3 3 2 2 2 3 3 4 4 5 5 6 6 6 6 7 8 9 9 10 11 12 12 13 13 13 13 13 13 13 13 13 14 14 14 15 16 16 17 17 17 17 16 15
2 2 4 5 4 5 5 4 4 4 5 6 6 5 4 4 4 5 5 5 4 3 3 4 6 6 6 7 6 5 6 6 5 3 2 3 2 2 3 5 6 5 5 5 5 4 4 4 5 6 6 6 6 7 7 7 8 8 9 10 10 11 12 13 13 14 14 13 13 14 14 14 14 14 15 15 15 16 16 16 17 17 18 18 17 16
3 2 4 5 5 3 6 5 4 4 4 5 6 6 5 4 4 5 5 6 5 4 1 1 1 4 6 5 4 5 5 3 3 2 1 3 3 3 4 6 6 7 7 7 7 6 6 6 7 7 7 7 7 7 8 8 8 9 10 11 12 13 13 14 14 14 14 14 14 14 14 15 15 15 15 15 16 16 16 16 16 17 18 19 18 17
3 3 5 5 6 3 8 6 4 4 6 4 4 5 4 4 3 3 5 6 6 5 4 2 3 6 7 3 1 4 4 3 4 3 2 3 4 4 5 6 7 7 7 7 7 6 5 6 6 6 6 6 7 8 8 9 9 10 11 13 14 14 14 15 15 15 15 15 16 16 16 16 16 16 16 16 16 16 16 16 16 17 18 19 20 19
4 5 4 4 5 3 7 6 5 6 6 1 4 4 4 5 4 4 5 7 6 4 4 5 6 8 8 5 2 3 3 3 4 3 3 4 4 4 5 6 6 6 6 7 7 5 5 5 6 6 7 7 8 8 9 9 10 11 12 13 14 14 15 15 16 16 16 17 17 17 17 17 17 17 17 16 16 16 16 16 16 17 17 18 19 19
6 5 3 3 4 2 6 6 7 6 1 5 6 5 6 7 7 7 7 7 7 6 7 8 8 8 8 7 5 4 4 4 4 4 3 3 3 3 4 5 6 6 6 6 6 6 6 6 7 7 7 8 8 9 9 10 11 12 13 13 14 14 15 16 16 16 16 17 18 18 19 19 18 18 17 16 16 16 16 17 16 17 17 18 19 19
5 5 3 2 2 1 4 6 4 1 5 7 5 3 3 2 2 3 4 6 6 5 5 7 8 7 6 7 5 5 5 5 4 4 4 3 4 4 5 5 6 6 6 6 7 7 7 7 7 8 8 8 9 10 11 11 12 13 14 13 13 14 15 15 15 16 17 18 19 19 20 20 20 19 17 16 17 18 17 17 17 17 17 18 18 19
4 4 4 3 1 3 5 3 1 2 5 6 5 3 1 1 1 2 0 4 5 3 4 6 7 5 5 6 5 5 4 4 4 4 4 5 5 5 5 6 6 7 8 8 7 6 6 7 7 8 9 9 10 11 12 13 14 14 14 14 14 15 15 15 16 17 18 19 20 20 20 21 21 20 18 18 18 19 18 18 18 17 17 17 18 19
1 1 3 4 3 3 4 3 3 3 3 4 5 5 2 2 3 2 3 2 4 3 3 5 5 4 4 4 3 2 3 4 1 4 5 6 6 6 6 7 7 8 9 9 8 7 7 8 8 8 9 10 11 12 13 14 15 15 14 15 15 15 15 16 17 18 19 19 20 21 21 21 21 21 19 19 19 19 19 19 18 18 17 17 18 19
3 1 2 4 4 4 5 5 4 3 1 5 6 5 3 2 1 2 4 2 3 3 3 3 3 3 3 3 2 1 3 4 1 4 5 6 6 7 7 7 8 9 8 9 9 10 9 9 9 9 10 11 13 14 14 15 16 15 15 15 15 15 16 17 17 18 19 20 20 21 21 21 21 20 20 20 20 20 19 18 18 18 18 18 18 18
5 4 4 5 4 4 5 5 2 2 5 6 4 3 2 2 2 5 4 1 3 3 2 1 2 4 4 2 2 3 4 4 4 4 6 7 7 8 8 8 9 10 9 10 11 11 10 10 11 12 12 13 14 14 15 15 15 15 15 15 15 15 16 17 18 19 19 20 20 21 20 20 20 20 20 20 20 19 18 18 17 17 18 18 18 17
4 3 3 5 3 3 4 5 1 3 5 4 3 3 1 3 4 4 1 3 5 4 4 4 4 5 4 3 3 3 5 5 4 5 6 7 7 7 8 9 9 10 10 11 12 12 11 10 11 12 12 12 13 14 14 14 14 14 14 14 14 15 16 17 18 19 19 20 20 21 20 19 19 19 19 19 18 18 17 16 16 16 15 17 18 17
3 3 2 4 3 1 3 4 1 3 4 3 3 3 1 3 3 0 3 5 6 7 7 7 6 6 4 5 5 4 4 5 5 5 5 6 6 7 8 9 9 10 10 10 11 12 12 11 11 12 11 12 13 13 13 13 13 12 13 13 14 15 16 17 19 20 20 20 19 19 19 18 19 19 19 18 18 17 16 15 16 15 15 15 16 16
1 2 3 2 0 1 3 3 2 2 3 4 2 1 2 2 2 5 6 6 8 8 7 7 7 6 5 5 5 5 4 4 4 4 5 5 6 6 7 9 9 10 10 10 11 12 12 11 11 12 12 12 12 12 12 12 12 12 13 13 14 15 16 17 18 19 19 19 18 18 18 18 19 20 19 19 18 17 16 15 15 16 15 14 15 15
3 3 1 2 2 3 3 1 1 2 4 4 2 3 6 6 6 6 6 6 7 6 6 6 6 6 5 5 4 4 4 3 3 4 4 5 5 6 7 8 9 9 9 10 11 12 12 11 10 11 11 11 11 10 11 11 12 12 13 14 14 15 16 17 18 18 18 18 18 18 18 17 18 19 19 19 18 17 17 16 15 16 15 15 16 16
4 4 2 4 4 4 4 5 5 4 6 7 8 9 10 9 7 7 7 7 6 5 5 5 5 5 5 4 3 3 3 4 3 4 5 5 5 6 7 7 8 9 9 9 10 11 11 11 10 10 11 10 10 9 10 11 11 13 14 14 15 15 16 17 18 18 17 17 17 17 17 18 18 18 18 18 18 18 17 16 16 15 15 16 17 15
5 2 2 3 6 8 8 8 7 8 9 10 10 10 10 9 8 8 9 8 6 6 6 5 6 6 5 5 5 4 4 5 4 4 5 5 5 6 7 7 8 9 9 9 10 10 11 11 10 10 10 9 9 9 9 10 11 12 14 14 14 14 15 17 17 17 17 16 16 17 17 18 18 17 17 17 17 17 17 16 16 15 14 16 17 15
3 1 2 4 6 4 5 7 8 9 10 10 10 10 10 10 10 8 8 8 7 7 7 6 6 5 5 6 6 5 5 6 6 5 4 4 5 7 7 8 9 9 9 10 10 10 10 10 10 11 10 9 9 10 11 11 12 13 14 14 14 14 15 16 17 17 16 16 16 16 16 17 17 17 17 17 17 17 18 17 16 16 14 15 16 16
1 1 2 5 4 3 6 9 9 9 9 8 8 8 8 9 10 9 8 8 7 7 7 6 5 5 5 5 5 5 5 5 6 6 5 5 5 7 7 8 9 9 9 9 9 9 9 9 10 11 11 10 10 11 12 13 13 13 13 13 13 14 15 16 17 17 16 15 15 15 15 16 16 16 17 17 17 17 18 17 17 16 15 16 17 15
1 2 3 6 7 7 8 9 8 8 8 7 7 8 7 8 9 8 8 7 7 6 6 6 6 6 5 5 4 4 4 5 5 6 5 5 5 6 8 9 9 9 8 8 8 8 8 9 10 11 10 10 10 11 13 14 13 12 12 12 13 14 15 16 17 16 15 15 14 14 15 15 15 16 16 16 16 17 16 16 16 15 14 16 17 14
1 3 4 5 6 5 7 9 6 4 5 6 7 8 8 7 8 7 6 6 6 5 4 4 4 5 5 5 4 4 4 4 5 6 5 5 6 7 8 8 8 7 7 7 8 9 9 9 9 10 10 10 10 12 14 13 12 11 11 12 13 14 15 16 17 16 15 14 13 14 15 15 15 15 16 15 16 17 16 15 15 13 12 14 15 13
3 3 2 2 4 6 9 9 4 3 6 8 8 8 7 6 6 7 6 5 5 5 4 4 4 4 4 4 5 5 4 5 5 6 6 5 6 7 7 7 7 7 7 7 9 9 9 9 9 10 10 10 11 13 13 12 11 11 12 13 14 14 15 16 17 16 15 14 14 14 15 15 15 15 15 15 16 17 17 16 16 14 12 14 14 11
Wind_Direction
283 273 250 263 6 9 343 332 323 324 314 299 293 280 272 259 99 88 98 116 176 208 164 192 190 129 132 131 152 167 176 197 179 153 139 139 82 78 103 142 185 174 100 62 42 43 39 54 53 75 117 171 184 211 252 268 279 284 275 267 276 291 300 296 292 287 285 278 271 266 269 275 275 278 277 272 275 275 274 276 276 271 269 272 273 272
258 258 248 35 10 340 321 319 305 289 267 268 284 273 233 229 85 84 95 126 193 235 150 169 194 142 124 125 144 169 182 190 174 153 143 135 97 103 126 125 116 107 90 76 65 61 58 62 62 79 85 63 64 40 5 347 331 327 320 312 310 313 312 306 305 298 293 287 282 277 273 278 285 289 286 284 282 273 272 277 281 281 279 276 274 271
243 251 278 55 358 313 300 297 278 256 242 252 265 247 198 128 103 104 107 136 187 239 150 171 193 126 112 118 138 176 184 153 89 67 91 90 92 96 96 93 92 88 80 73 68 63 60 59 55 61 54 41 43 40 36 22 8 3 354 359 352 327 317 313 306 292 285 283 282 280 278 280 285 286 283 283 280 274 275 277 278 282 282 278 275 272
232 230 53 37 334 305 291 258 244 240 227 238 269 271 85 92 246 121 124 154 173 278 150 164 177 90 119 139 138 161 157 104 86 82 83 82 89 90 85 80 76 78 75 68 68 61 55 57 53 50 46 45 49 48 45 35 31 29 14 9 0 335 324 318 307 295 289 288 286 284 284 280 278 282 282 285 281 274 275 275 276 285 288 285 282 278
253 9 34 342 297 293 287 247 226 248 228 182 263 302 360 35 318 15 110 151 156 180 170 156 171 198 185 175 147 141 150 135 129 132 113 100 104 100 92 85 73 71 68 61 66 60 51 53 51 50 48 50 52 52 48 42 40 38 27 17 4 347 341 336 325 313 303 297 292 282 280 276 275 283 286 290 289 277 275 281 285 291 294 294 293 285
259 354 15 285 275 277 278 259 210 278 273 151 104 351 346 338 329 75 143 167 177 198 186 191 232 188 167 176 149 144 161 152 146 144 123 113 121 114 100 94 87 80 72 62 61 59 53 51 51 50 48 48 50 49 46 44 45 44 43 35 21 14 2 355 349 334 317 305 300 290 290 297 299 302 305 305 307 300 291 291 292 294 292 292 292 286
253 4 337 268 279 276 266 250 111 292 274 219 63 12 339 301 279 207 193 216 260 4 173 211 260 8 157 176 153 151 159 144 144 139 122 122 128 114 102 98 96 92 87 78 69 62 56 51 48 46 42 44 47 46 45 46 49 49 49 45 37 33 21 5 359 351 342 329 322 316 312 317 318 317 318 312 309 306 297 291 289 289 287 285 286 283
215 224 227 243 265 265 254 233 76 309 277 14 42 351 315 284 267 246 233 248 291 67 161 205 252 278 206 165 146 155 158 145 146 136 124 130 124 111 108 103 98 93 89 86 77 65 58 52 49 46 42 42 45 46 46 46 49 49 46 45 41 37 30 14 4 1 358 351 343 338 334 333 332 331 327 316 309 308 302 297 294 293 292 291 289 285
188 217 216 231 255 251 262 33 46 314 287 50 49 341 309 288 279 270 255 261 297 259 219 190 212 255 210 137 144 165 166 156 151 142 135 132 124 118 113 106 103 99 89 84 79 70 63 57 52 49 45 43 45 44 45 46 47 50 48 45 43 40 35 25 16 12 7 1 357 356 356 353 350 346 338 326 320 318 313 309 308 306 305 302 297 290
141 206 228 254 262 263 35 39 20 306 319 87 111 233 230 238 251 255 255 269 268 261 264 168 194 258 219 137 158 181 182 169 155 147 141 135 129 125 116 112 112 107 95 85 83 79 71 62 55 52 49 45 45 44 44 47 46 47 48 46 46 43 37 32 27 24 20 16 14 14 12 8 3 356 347 342 338 333 329 324 320 319 316 310 303 293
129 112 315 251 262 311 27 54 19 324 81 134 182 205 184 189 205 226 250 285 253 246 303 179 215 262 256 155 165 177 172 164 157 150 146 143 137 128 124 122 116 108 102 93 88 85 77 68 60 55 52 47 45 45 43 43 43 44 44 46 48 44 36 32 32 33 31 28 26 23 18 11 4 358 354 349 345 341 340 337 331 326 321 313 305 292
209 201 203 213 235 275 248 198 123 142 167 184 222 225 208 190 188 209 188 224 262 256 135 223 229 251 262 195 147 139 129 149 160 156 154 153 144 135 130 121 112 107 106 99 93 88 79 71 63 56 53 51 47 45 41 39 42 42 41 43 44 40 35 33 33 35 38 37 34 30 24 18 11 3 357 349 341 338 335 333 330 325 319 312 305 292
211 209 187 164 175 219 237 224 167 170 192 221 234 230 254 264 242 256 227 226 276 332 122 186 227 243 256 73 119 134 133 148 154 152 157 154 144 139 133 122 116 110 106 100 94 89 81 73 66 57 52 51 49 46 42 42 45 46 44 43 43 39 36 35 33 34 38 37 35 32 27 22 16 6 355 341 334 329 321 316 315 316 316 313 310 300
193 189 185 193 174 190 230 235 213 191 190 214 236 241 269 299 293 286 286 272 286 87 116 148 228 236 218 108 112 127 128 138 147 149 151 146 140 137 135 129 122 112 101 95 92 88 84 78 74 71 64 57 55 52 50 51 52 52 49 46 48 46 42 41 40 39 40 37 33 30 23 16 8 357 346 335 329 324 318 315 311 308 308 308 309 309
201 187 181 207 158 152 216 247 288 296 203 207 253 275 279 303 310 311 318 313 318 48 135 157 233 271 239 123 113 109 115 134 153 145 135 134 134 131 131 130 124 115 103 94 94 92 89 86 84 85 80 70 65 61 59 59 58 57 55 51 51 51 48 46 45 45 44 43 39 35 29 21 10 358 348 343 342 337 330 324 316 310 308 308 311 312
226 195 112 116 77 167 224 243 284 281 234 192 233 262 283 317 316 316 314 320 323 299 177 165 249 300 87 127 124 122 129 135 144 140 134 136 136 135 135 132 127 117 108 105 102 97 94 94 93 89 86 80 73 67 64 60 58 59 57 55 53 50 48 47 45 45 44 43 42 39 36 29 19 9 360 354 352 347 342 337 328 321 317 315 315 312
231 164 108 119 129 140 280 226 226 266 255 169 225 247 9 7 301 293 280 261 289 284 305 286 265 224 128 146 136 135 138 137 146 148 144 143 142 144 141 134 131 119 114 112 105 103 101 98 95 88 85 82 77 73 69 63 60 59 57 58 56 52 48 45 43 41 38 37 36 35 32 26 20 14 7 1 356 351 348 344 339 333 326 320 317 313
245 165 126 147 133 102 9 214 181 283 288 269 261 171 102 96 267 278 286 272 268 282 296 270 276 267 167 191 153 153 150 148 156 153 147 149 149 147 140 133 129 121 117 114 109 109 107 101 96 91 86 83 83 80 76 70 68 66 63 62 59 55 49 44 40 36 31 29 26 24 23 20 17 11 5 1 354 351 349 346 343 338 334 331 326 319
281 187 131 144 139 121 156 210 173 139 261 301 319 133 182 276 272 245 279 289 290 296 298 273 281 279 254 73 180 180 167 157 157 153 153 155 152 145 139 136 130 122 120 117 115 114 109 104 97 93 91 90 90 88 83 79 76 73 68 64 60 55 50 44 38 34 28 24 19 13 9 6 6 2 358 355 350 348 346 343 342 336 334 335 330 325
273 244 151 153 162 157 180 218 228 160 141 168 190 188 247 301 305 291 291 296 296 300 301 297 290 296 46 30 313 193 170 162 158 157 161 157 149 145 142 141 134 127 122 116 116 113 108 106 100 96 95 94 94 91 88 83 76 73 69 65 62 55 49 42 35 29 23 19 14 8 3 357 354 350 347 347 345 344 343 340 339 334 331 329 325 325
206 255 180 155 172 206 196 205 309 308 238 228 240 252 261 272 283 289 287 283 292 297 299 296 293 5 56 12 343 327 164 165 161 159 158 151 146 144 143 144 137 127 123 118 118 115 110 109 105 103 101 99 98 94 90 84 75 70 62 59 58 49 43 37 30 23 14 10 6 2 359 354 348 343 337 336 336 337 338 336 335 331 328 323 319 319
211 244 235 181 194 210 99 57 15 335 322 302 298 301 298 286 277 281 278 268 278 288 297 298 296 24 55 2 334 318 163 161 161 156 149 144 143 141 142 142 133 125 126 122 118 114 111 110 109 109 109 106 103 97 91 83 72 64 52 46 47 42 35 27 22 16 5 359 355 352 350 345 341 337 332 328 328 331 333 333 332 329 325 322 318 316
221 259 240 229 222 73 71 69 58 19 7 320 315 326 306 289 285 285 290 299 285 277 290 289 284 33 44 4 334 249 150 151 156 148 141 141 138 139 140 134 126 121 119 115 111 108 108 108 107 109 109 106 103 99 93 81 65 54 41 32 32 33 28 18 11 4 353 347 345 344 341 337 333 330 328 327 326 331 333 331 330 328 324 321 318 315
164 248 234 227 92 100 99 110 136 135 282 263 275 1 306 298 306 298 302 315 296 286 293 278 274 64 53 16 27 119 131 140 148 143 140 140 137 139 135 126 123 120 114 106 105 108 111 111 111 109 107 104 101 96 86 78 62 43 25 16 19 20 14 8 0 352 347 339 335 336 334 332 330 326 326 327 326 330 333 332 329 327 325 322 319 317
187 222 220 222 202 184 174 179 182 191 238 264 330 43 333 320 300 284 289 291 285 305 318 294 290 50 67 53 94 128 134 134 136 133 135 138 140 137 128 121 120 119 118 108 104 110 112 111 112 108 104 99 92 83 71 58 37 29 19 14 19 12 2 359 353 348 344 338 333 332 329 328 328 327 327 327 326 329 330 329 329 327 325 323 321 318
187 224 207 234 243 235 246 246 240 244 235 230 143 81 348 321 287 285 287 275 282 313 311 291 296 70 96 103 121 132 132 127 124 123 126 129 131 123 114 112 110 109 110 105 105 107 101 100 103 103 100 83 66 53 44 34 24 30 33 27 19 7 359 356 351 345 341 338 336 332 328 326 325 324 326 326 327 328 328 327 327 325 323 321 319 317
174 184 178 284 293 292 324 44 24 297 271 195 127 66 10 337 289 281 284 292 310 301 284 306 340 82 118 116 120 114 95 80 69 61 72 84 94 95 94 98 101 99 102 104 109 101 87 84 76 76 85 72 51 37 35 40 46 48 41 24 10 4 2 356 349 344 339 337 336 332 331 330 326 325 326 326 327 326 326 325 325 324 323 320 317 315
190 181 158 13 25 49 59 80 83 331 332 66 65 44 30 14 308 286 300 336 330 293 294 10 6 201 105 81 75 69 56 51 43 31 27 20 18 34 58 90 101 99 100 95 91 78 47 334 342 7 44 62 62 64 65 66 59 44 24 15 10 6 2 352 345 343 338 335 335 334 334 333 330 329 328 327 326 325 325 324 323 321 319 319 317 314
235 186 162 154 109 84 84 92 87 85 86 78 67 55 41 36 26 358 1 11 336 304 330 23 38 79 73 66 60 46 42 66 81 82 76 55 21 351 330 42 110 105 104 80 48 8 320 317 334 356 32 60 72 76 72 59 43 24 11 12 8 1 356 346 341 339 336 334 334 333 334 331 330 330 329 328 327 325 324 323 322 320 318 317 317 314
278 156 162 165 127 99 95 96 98 109 106 95 80 67 58 56 51 43 39 28 3 357 31 62 81 78 60 60 68 49 39 65 73 72 84 90 82 296 291 327 37 46 55 43 22 15 5 8 24 34 50 63 63 59 50 33 21 10 4 4 357 350 345 339 336 335 334 334 332 331 332 330 329 330 329 329 326 324 323 322 321 320 317 316 315 313
251 190 173 177 148 112 111 114 124 132 118 105 91 70 65 67 55 47 36 15 358 15 66 102 101 90 68 64 78 80 64 66 67 52 49 60 44 322 346 29 35 40 53 56 52 52 50 53 59 61 61 55 45 37 28 16 6 358 356 352 346 340 336 333 335 334 333 334 333 332 331 329 328 328 327 327 325 323 322 322 321 319 317 316 314 313
216 179 162 204 233 161 144 154 146 148 161 139 100 63 53 52 47 52 38 11 355 355 355 179 97 89 90 82 90 98 94 117 142 130 87 60 45 28 44 55 59 61 66 70 67 59 56 62 64 63 56 44 31 22 14 5 357 354 351 345 339 336 334 335 336 333 332 334 334 333 330 327 326 325 324 323 322 322 321 320 320 319 317 316 315 313
187 178 174 220 258 177 154 169 171 195 223 192 93 49 45 51 50 64 50 32 14 342 320 335 53 93 110 127 168 128 127 143 127 102 73 72 70 63 63 64 64 61 56 51 48 46 51 55 50 47 41 29 18 11 7 4 358 351 345 340 338 336 336 337 335 332 332 333 334 333 330 327 326 323 322 322 320 320 319 317 317 317 317 315 314 313
186 219 204 221 264 198 152 167 206 238 255 184 83 57 55 60 59 68 54 42 38 27 37 68 90 110 117 117 115 104 95 87 84 78 69 66 65 66 67 56 41 37 29 17 14 19 33 34 25 27 26 18 14 10 6 4 355 346 341 339 338 338 338 337 333 333 333 333 333 332 329 328 326 323 323 322 320 318 316 314 314 314 314 313 311 311
194 217 197 199 255 218 144 180 234 257 246 110 104 87 76 70 70 80 75 58 55 68 85 95 104 108 97 87 89 94 95 94 91 90 85 70 44 30 41 40 28 21 14 11 14 18 22 21 19 21 18 14 13 8 3 0 352 345 342 341 340 340 339 336 334 334 335 334 333 332 330 328 325 322 323 321 318 316 314 313 313 311 312 311 309 308
206 196 171 181 238 196 181 212 251 266 126 132 128 115 107 100 102 116 101 83 69 69 90 104 110 106 80 69 86 112 130 135 120 101 83 60 36 10 8 24 29 22 15 18 27 30 22 16 19 19 13 12 12 8 3 359 351 345 342 342 343 341 339 337 337 338 338 335 333 331 329 326 322 321 321 317 315 316 315 314 312 310 310 309 307 307
217 187 175 179 195 234 229 217 138 144 166 168 154 141 145 48 15 300 357 98 91 70 94 114 119 105 68 57 82 116 151 173 145 99 67 45 39 26 23 30 27 20 17 15 22 34 26 15 17 15 7 8 15 13 5 356 349 344 342 344 345 343 342 343 343 341 339 334 330 329 326 322 320 319 318 317 317 318 317 315 312 309 309 308 307 306
209 208 196 191 189 234 245 219 197 217 202 154 122 106 92 49 41 324 281 135 114 91 101 121 125 105 69 60 82 120 205 229 176 79 55 39 38 32 29 28 19 16 19 15 14 18 17 11 8 7 7 10 14 12 2 352 348 346 346 348 348 346 347 347 344 341 337 332 329 327 324 322 321 321 323 323 322 320 316 314 311 309 310 309 306 304
172 186 216 213 193 206 239 244 244 263 80 108 108 103 115 119 68 282 260 183 120 106 108 133 135 102 65 46 42 348 290 290 351 57 40 28 33 28 19 14 9 8 11 14 9 3 6 9 2 358 7 12 9 5 0 354 350 350 351 350 348 347 348 346 343 339 335 331 329 327 325 325 325 327 328 326 323 321 317 315 312 310 313 313 308 305
186 188 210 231 211 197 239 257 275 42 78 97 93 77 107 134 239 258 256 142 117 118 109 114 93 72 56 23 353 354 359 357 9 28 18 9 17 21 14 10 9 4 3 8 8 359 357 5 2 357 6 11 6 2 0 356 352 352 352 349 348 349 348 345 340 337 333 330 328 328 328 327 327 329 328 324 322 321 320 318 316 315 317 317 313 310
184 185 217 244 223 187 234 255 254 85 87 80 53 41 99 186 231 264 304 93 111 109 92 75 67 65 51 18 8 29 44 34 17 18 18 10 9 13 10 7 5 3 2 7 10 2 353 359 4 1 4 10 6 1 359 354 351 351 350 349 351 350 346 342 338 336 334 331 330 332 332 329 329 329 327 326 326 323 323 324 321 319 320 318 315 316
182 182 205 243 245 207 237 261 243 106 80 21 19 66 96 245 241 58 83 107 109 97 89 84 77 72 57 43 42 46 50 40 24 20 25 20 13 9 8 2 357 358 359 1 8 5 355 355 4 2 2 8 5 360 358 354 350 351 349 349 350 347 341 340 339 337 336 334 333 334 333 331 331 331 331 334 333 329 329 329 327 325 323 318 316 319
1 239 198 183 318 241 224 253 260 130 73 355 318 116 55 349 89 106 110 111 101 93 91 83 69 58 48 52 56 52 51 50 34 18 18 19 11 5 6 5 360 358 357 356 3 5 358 357 5 4 1 3 2 359 359 356 353 351 348 347 346 342 339 339 339 337 336 337 337 335 333 333 333 332 335 338 337 333 331 330 331 329 324 323 328 330
9 321 229 95 15 289 245 259 10 58 60 30 13 81 77 76 100 116 111 100 93 88 86 82 72 60 50 52 57 54 52 47 27 10 5 7 8 5 8 12 8 2 360 2 7 5 358 358 3 0 356 358 360 1 1 357 352 348 346 344 340 336 337 337 337 336 336 337 339 337 335 335 334 335 339 340 339 337 334 333 337 334 332 342 352 350
39 19 36 61 49 32 45 72 83 80 76 76 81 90 93 92 94 96 93 90 84 74 72 79 84 74 59 50 47 46 37 23 13 10 2 1 11 14 12 13 12 5 3 8 11 4 356 355 355 352 351 352 355 357 357 354 348 342 342 341 335 333 335 335 334 334 333 334 336 336 335 336 337 340 343 342 342 341 339 339 342 340 346 1 4 359
73 43 19 82 104 91 73 79 95 92 88 89 89 92 94 89 82 81 84 83 77 70 68 65 62 60 49 34 24 23 19 8 4 15 12 2 9 17 14 12 12 9 6 8 9 3 354 351 352 352 351 350 351 351 349 347 343 337 336 337 334 333 335 334 332 332 331 332 334 334 334 337 338 340 343 343 343 343 343 345 346 345 358 13 8 359
85 357 68 117 138 133 98 94 95 92 93 95 94 91 88 83 80 78 80 82 78 71 67 62 57 52 42 32 23 16 16 10 4 9 14 7 7 12 15 15 12 11 10 9 7 2 355 354 357 356 352 349 349 347 342 340 339 335 333 334 335 336 337 335 333 332 331 332 334 335 337 338 338 338 342 344 345 345 346 349 349 351 5 19 13 3
78 274 123 108 104 103 107 109 102 92 89 87 87 89 86 82 81 80 82 87 85 77 69 59 47 36 34 37 27 12 17 20 7 359 5 14 14 14 19 20 13 10 11 10 6 2 358 356 357 355 352 349 346 343 341 338 336 335 335 337 339 339 338 337 335 333 332 332 334 338 340 339 338 338 341 343 345 346 347 349 350 352 4 18 17 10
157 190 128 108 104 103 111 122 123 110 101 92 84 85 86 87 91 94 95 94 89 82 73 59 46 39 40 44 31 13 19 26 12 0 4 16 20 22 24 18 8 6 10 8 7 6 360 353 352 352 352 350 344 342 341 338 337 339 340 341 343 341 340 339 335 333 332 333 335 339 341 341 341 341 341 342 342 343 345 349 351 353 1 11 12 11
155 132 124 135 142 133 133 143 146 124 116 118 106 99 100 104 106 106 101 91 83 77 73 67 62 58 52 43 30 23 30 32 16 4 5 19 29 30 24 13 6 10 13 8 9 9 2 355 353 351 350 349 345 344 343 340 340 346 348 347 347 344 342 341 337 335 335 335 337 341 342 341 343 343 341 341 340 339 340 344 350 356 1 3 2 3
39 66 62 79 94 105 125 139 139 86 106 118 117 112 113 114 112 108 97 85 79 71 60 51 49 53 54 47 38 31 29 27 16 5 6 22 34 29 22 20 18 15 9 7 11 9 0 356 354 351 350 350 347 346 345 344 346 352 352 350 349 346 344 342 340 339 338 337 339 341 340 340 343 344 344 343 341 341 340 339 343 350 356 359 359 357
Height
790 804 804 799 799 798 797 797 798 798 799 801 802 802 802 802 804 803 806 804 800 810 814 810 812 814 815 814 810 809 809 810 811 811 811 810 809 815 819 818 817 814 811 809 809 809 809 810 811 811 811 812 813 813 814 814 814 815 815 816 817 817 818 818 818 818 818 819 819 819 820 819 819 820 820 820 819 819 818 817 817 817 816 816 816 816
794 810 804 794 797 796 795 794 796 798 800 801 801 801 801 801 805 804 806 807 802 809 814 811 815 818 816 814 811 809 811 812 810 810 813 810 809 813 814 814 814 811 808 808 809 810 810 811 811 811 812 812 813 814 815 814 814 815 815 816 816 817 817 817 818 817 817 817 817 818 818 819 819 819 819 819 819 818 816 816 816 816 815 814 814 814
807 807 795 790 793 793 793 794 797 799 800 800 797 799 801 799 804 809 809 807 803 808 815 813 816 821 817 814 812 810 810 810 809 809 810 810 810 811 811 811 811 810 810 809 809 810 811 812 812 812 812 813 814 814 814 815 815 815 815 815 816 816 816 817 817 816 816 816 816 817 817 818 818 817 818 817 816 815 814 814 814 813 813 813 813 813
813 801 789 789 791 794 795 794 798 799 796 797 796 797 801 798 803 813 813 810 806 807 811 812 818 823 820 817 815 812 810 810 811 810 808 808 811 812 810 810 811 812 813 812 811 811 811 813 813 813 814 814 814 814 815 815 816 816 816 816 815 816 816 816 817 816 816 816 816 816 816 817 816 816 816 815 814 813 812 812 811 811 811 811 811 811
805 790 785 789 791 795 798 794 796 798 794 793 795 797 799 799 800 804 808 809 809 810 807 811 825 824 817 820 819 813 812 813 813 812 812 811 811 811 810 811 812 813 814 813 813 812 812 814 814 814 815 815 815 815 816 816 817 817 817 816 816 816 816 816 816 816 816 816 815 815 815 815 815 815 814 814 813 812 811 811 810 810 810 809 810 810
799 786 786 794 794 794 797 795 793 796 795 794 795 796 796 798 799 800 805 807 814 821 808 809 830 828 814 818 820 815 815 817 814 813 815 815 812 812 813 814 814 814 814 813 813 813 814 814 815 815 815 815 815 816 817 817 817 818 817 817 817 816 816 816 816 816 815 815 815 815 814 814 813 813 813 813 812 811 810 810 809 809 809 808 808 808
794 788 789 796 797 795 797 795 791 793 798 801 799 794 793 796 799 801 804 806 815 823 809 802 823 833 825 820 817 815 818 819 817 815 816 816 814 813 813 814 815 815 815 814 814 814 815 815 815 815 815 816 816 816 817 818 818 818 818 817 817 817 816 816 816 816 815 815 815 815 814 814 813 813 813 812 812 811 810 810 809 809 808 808 807 808
791 794 796 797 798 798 797 795 792 790 798 805 798 792 794 796 799 799 801 804 805 811 811 804 812 827 829 821 814 815 820 822 820 819 818 816 814 813 813 814 815 815 815 815 816 815 816 817 816 817 817 817 817 818 818 818 818 818 818 818 818 817 817 816 816 816 815 815 815 815 814 814 813 813 812 812 811 810 810 809 809 809 808 807 807 807
788 797 799 797 800 799 794 791 789 789 798 801 793 792 794 796 798 796 798 802 799 809 820 810 809 823 825 818 815 815 820 825 823 820 819 816 815 814 813 814 814 815 814 814 816 817 817 818 818 818 819 818 819 819 819 819 819 819 819 819 818 818 818 817 817 816 815 815 815 814 814 814 814 813 812 812 811 810 809 809 809 808 807 806 806 806
788 792 790 794 801 796 789 789 788 790 797 795 791 793 794 795 797 797 800 801 805 819 824 811 809 823 826 819 817 819 822 825 822 817 817 816 815 814 813 813 814 814 815 815 816 818 818 819 820 820 820 820 820 820 820 820 820 820 820 820 819 819 819 819 818 817 816 816 815 815 814 814 814 813 812 812 811 811 810 809 808 807 807 806 806 806
786 786 786 791 793 787 787 790 790 790 791 791 793 795 797 798 797 799 801 803 819 830 822 811 808 818 829 821 811 815 815 813 815 816 816 815 814 815 813 812 813 813 815 816 817 818 819 820 821 821 821 821 821 821 821 821 820 821 820 820 820 820 820 820 819 818 817 817 816 816 815 815 814 814 813 812 812 811 810 810 809 808 807 806 805 805
789 792 790 784 782 783 788 792 791 788 787 791 794 796 805 808 805 809 810 815 832 835 819 810 807 815 831 820 804 805 804 801 808 813 815 816 815 815 814 812 812 813 815 816 818 818 819 820 821 821 822 822 822 822 822 822 822 821 821 821 821 821 821 821 820 819 818 818 817 817 816 816 815 815 814 813 813 812 811 811 810 809 807 806 805 804
794 790 784 782 781 782 790 796 795 792 791 794 795 800 815 823 824 829 827 826 832 828 814 808 811 820 822 810 800 802 802 800 802 804 808 812 814 815 814 814 813 813 814 816 818 819 819 821 822 822 823 823 823 823 823 823 823 823 823 822 822 822 822 821 821 820 819 819 818 818 817 817 816 816 815 814 813 812 811 811 810 809 807 806 805 804
803 792 783 787 787 781 787 796 800 798 795 797 796 802 818 829 841 846 835 828 828 822 813 807 815 821 814 806 801 799 801 801 799 799 802 806 811 814 813 813 814 814 815 817 818 819 819 821 823 823 824 824 824 824 824 824 824 824 825 824 824 824 823 823 822 821 821 820 820 819 818 818 817 816 815 814 813 812 811 810 809 808 807 806 805 804
810 809 793 789 789 784 785 786 789 788 788 790 784 791 807 814 830 841 833 830 828 820 816 817 821 819 814 811 803 797 800 799 798 799 801 806 809 811 812 813 815 816 817 819 819 819 820 822 823 824 825 825 825 825 826 826 826 826 826 826 825 825 825 824 823 822 822 821 821 820 819 819 818 817 816 814 813 812 811 810 809 808 806 805 804 803
807 807 787 781 782 781 785 780 776 783 790 786 778 791 804 797 805 821 822 821 821 820 819 820 817 804 801 804 796 796 801 798 800 802 804 810 810 810 815 814 816 818 818 819 819 820 821 822 823 824 825 826 826 827 827 827 827 827 827 827 827 826 826 825 825 824 823 822 822 821 820 819 819 818 816 815 814 813 811 810 809 807 806 805 804 803
808 804 783 781 783 778 782 780 774 785 793 789 788 798 795 782 791 813 820 813 816 829 825 815 810 798 800 808 800 798 805 803 805 807 807 811 811 812 816 815 816 818 818 819 819 820 821 822 823 824 825 826 827 828 829 829 829 829 829 828 828 828 827 826 826 825 824 824 823 822 822 821 819 818 817 816 815 813 812 810 809 808 806 805 804 802
798 802 786 782 790 782 775 777 775 776 782 791 798 793 785 785 790 804 822 823 824 836 826 812 814 808 811 823 812 803 809 809 807 808 809 811 812 813 815 815 817 817 817 818 818 819 820 821 823 824 825 827 828 829 829 830 830 830 830 830 829 829 828 828 827 826 826 825 824 824 823 822 820 819 817 816 815 813 812 811 809 808 806 805 803 802
788 804 795 782 789 785 772 780 788 779 774 783 787 779 786 808 810 807 822 831 833 839 829 815 814 807 807 818 816 808 809 809 808 809 811 812 812 814 815 816 817 816 817 817 817 819 819 821 823 824 826 827 829 830 830 831 831 831 831 831 830 830 829 829 828 828 827 826 825 824 823 822 821 819 818 816 815 813 812 811 809 808 806 805 803 802
784 805 808 786 780 783 779 786 796 790 779 778 780 779 785 800 808 807 811 816 826 836 833 824 820 814 807 808 809 806 802 805 809 810 811 811 812 814 815 816 817 817 817 816 817 818 818 822 824 825 827 828 829 830 830 831 831 831 832 831 831 831 830 830 830 829 828 827 826 824 823 822 821 819 818 816 815 813 812 811 809 807 806 805 803 802
785 801 809 793 781 787 792 790 791 792 788 786 790 793 792 793 798 803 803 802 812 827 832 831 830 825 814 806 805 801 797 801 805 807 809 809 810 813 814 816 817 817 817 816 817 818 819 823 825 826 828 829 830 831 831 831 832 832 832 832 832 832 831 831 830 829 829 827 826 825 823 822 821 819 818 816 815 813 812 810 809 807 806 804 803 802
788 796 802 798 791 794 795 787 784 787 787 788 792 792 794 796 801 816 820 807 803 814 821 825 831 827 813 806 805 800 795 798 800 803 808 809 810 813 815 816 817 817 817 817 817 818 821 823 825 827 829 829 830 831 831 832 832 832 833 832 832 832 832 832 831 830 829 828 827 825 824 823 821 819 817 816 814 813 811 810 808 807 806 804 803 801
781 790 798 799 793 791 791 785 783 785 782 784 788 787 790 792 798 818 828 814 804 807 808 812 823 824 812 805 804 799 794 796 799 802 807 809 811 814 815 817 817 818 818 817 818 820 823 825 827 828 829 830 831 831 831 832 832 833 833 832 832 832 832 832 831 830 830 828 827 825 824 822 820 819 817 815 814 812 811 810 808 807 805 804 802 800
783 793 801 803 796 790 788 784 782 783 785 789 790 788 792 794 795 803 807 805 809 810 808 816 824 824 815 806 803 800 797 798 800 802 807 810 812 814 816 818 819 820 820 819 821 823 825 827 828 829 830 830 831 831 831 832 832 832 832 832 832 832 832 831 831 830 829 828 827 825 824 822 820 819 817 815 814 812 811 809 808 806 805 803 801 799
789 797 801 812 818 813 808 803 797 792 791 793 793 793 795 794 794 798 796 801 813 812 810 822 828 824 816 808 805 804 802 803 805 804 808 813 815 816 817 819 821 822 823 823 823 824 826 828 828 829 830 830 831 831 831 832 832 832 832 832 831 831 831 831 830 830 829 827 826 825 823 822 820 819 817 815 814 812 810 809 807 806 804 802 801 799
787 795 798 813 827 831 830 824 814 803 795 794 797 797 797 795 797 803 803 810 820 816 812 820 823 820 816 811 809 809 808 810 812 811 813 816 817 818 819 822 824 825 825 825 825 826 827 828 829 829 830 830 831 831 832 832 832 831 832 832 831 831 831 830 830 829 828 827 825 824 823 821 820 818 816 815 813 811 810 808 806 805 803 802 800 798
786 795 797 806 813 816 818 813 803 798 797 801 803 801 800 799 798 801 807 816 820 815 814 818 816 818 820 815 814 816 818 822 825 824 824 823 823 823 823 825 826 827 827 827 826 827 828 829 830 829 830 831 831 831 832 832 832 832 832 831 831 831 830 830 829 828 828 826 825 823 822 820 819 817 816 814 812 811 809 807 806 804 802 801 799 797
789 798 800 803 805 802 803 802 796 796 801 805 807 806 804 802 800 803 811 816 816 817 823 821 816 819 824 823 825 828 829 833 838 839 838 838 837 833 829 828 828 829 829 828 827 828 829 829 830 829 830 830 831 832 832 832 832 832 832 831 831 831 830 830 829 828 827 825 824 822 821 819 818 816 815 813 811 810 808 806 805 803 801 800 798 796
787 799 799 800 805 802 800 800 797 799 805 806 808 810 808 806 807 810 814 814 814 821 827 823 818 823 829 834 839 838 836 837 839 839 839 840 841 840 835 829 827 829 829 829 829 829 829 830 829 829 830 831 831 832 831 832 832 831 831 831 831 830 830 829 828 827 826 824 823 821 820 818 817 815 814 812 811 809 807 805 803 801 800 798 797 795
785 800 800 798 806 807 803 802 801 802 808 810 810 811 810 810 812 813 815 814 814 819 822 821 824 831 836 842 845 843 840 839 838 838 837 836 836 837 834 829 826 828 829 830 830 829 829 830 830 831 832 832 832 832 832 832 831 831 831 831 831 830 829 829 828 826 825 823 822 820 819 817 815 814 812 811 809 808 806 804 802 800 798 796 795 794
787 803 800 795 806 813 807 804 803 804 809 813 815 813 811 812 814 814 817 817 817 820 820 819 828 838 841 843 843 841 839 839 840 843 841 837 834 833 831 830 830 829 830 831 831 830 830 830 831 832 833 833 833 832 832 832 832 831 831 831 831 830 829 828 826 825 824 822 821 819 817 816 814 813 811 810 808 806 805 803 801 799 797 795 793 792
785 800 801 799 810 815 809 808 808 806 807 814 819 818 816 817 818 819 820 820 821 823 823 824 831 837 840 842 840 838 838 840 841 842 840 836 833 832 832 832 832 831 831 832 831 831 831 832 832 833 833 834 834 833 833 833 832 832 831 831 830 829 828 826 825 824 822 821 819 818 816 815 814 812 811 809 807 805 803 802 800 798 796 794 792 790
785 796 801 803 811 814 809 809 810 809 816 824 824 821 820 820 820 821 821 822 822 822 825 830 832 833 837 840 839 837 838 839 839 838 837 834 832 831 831 831 832 832 831 831 831 832 833 833 833 834 834 834 834 834 833 833 832 832 831 830 829 828 827 825 824 823 821 819 819 817 816 814 812 811 809 808 806 804 802 801 799 797 795 793 790 788
787 792 795 799 809 815 812 809 813 821 831 832 823 816 817 818 820 823 825 824 823 822 823 827 828 829 833 837 837 837 837 837 837 836 834 833 832 832 832 832 833 832 832 832 831 832 833 834 835 835 835 835 835 834 834 833 833 832 831 830 829 827 826 825 823 822 820 819 818 816 815 813 811 810 808 806 805 803 801 800 798 796 794 792 790 787
791 792 795 799 804 810 812 816 829 838 834 824 816 813 814 816 817 823 827 825 823 823 824 827 830 831 832 834 835 836 837 836 835 835 833 832 832 831 832 833 833 833 833 833 833 834 835 835 836 836 836 836 835 835 834 834 833 832 831 829 828 827 825 824 823 821 820 818 817 815 814 812 810 809 807 805 804 802 800 798 797 795 793 791 789 787
788 792 798 802 805 811 816 822 836 840 827 818 819 817 815 818 820 823 830 829 825 825 827 829 832 831 832 835 835 836 836 835 834 835 833 831 831 831 831 832 833 833 833 833 834 836 837 837 837 837 837 836 836 835 834 833 832 831 830 829 828 826 825 824 822 821 819 818 816 815 813 811 809 808 806 804 802 800 798 797 795 794 792 790 788 786
783 790 797 805 811 813 814 818 827 832 828 824 823 820 817 820 821 824 831 834 828 824 826 830 832 832 833 835 835 835 835 835 837 838 834 831 832 831 831 832 832 833 833 834 835 837 837 838 838 838 837 837 836 835 834 833 832 831 829 828 827 826 825 823 822 821 819 818 816 814 812 810 808 806 804 803 801 799 797 795 794 792 791 789 787 784
783 788 793 804 812 809 811 820 826 834 836 829 822 819 816 817 817 818 827 834 830 825 826 829 833 834 834 835 835 835 836 837 841 842 837 833 833 832 832 833 833 834 835 836 836 836 837 838 837 837 838 837 836 835 835 833 832 830 829 828 827 826 825 823 823 821 820 818 816 814 812 810 807 805 803 802 800 798 796 794 793 791 789 788 786 783
786 787 788 799 809 809 814 821 822 829 835 829 822 818 816 816 816 818 830 839 835 828 828 830 832 834 835 836 835 835 837 840 842 841 837 834 833 833 834 834 835 835 836 837 837 837 837 838 837 837 837 836 836 835 834 833 832 830 829 828 827 826 825 824 823 822 820 818 816 814 812 809 807 805 803 801 799 797 796 793 791 789 788 786 784 782
791 791 793 800 807 809 813 816 815 823 830 825 820 819 816 814 816 827 845 849 836 829 830 831 832 834 835 836 836 836 841 843 843 840 836 833 834 835 835 836 837 837 837 838 839 838 838 838 838 837 836 837 837 836 835 834 832 831 830 829 827 827 826 825 824 822 820 818 816 814 811 809 807 805 802 801 799 797 795 793 790 789 787 785 782 780
798 797 799 802 804 808 814 815 816 824 828 822 820 819 815 815 823 839 851 845 833 831 832 831 834 836 836 836 836 838 841 841 840 838 836 835 836 836 837 838 838 838 839 839 840 839 838 838 838 838 838 838 837 837 836 835 833 832 831 829 828 828 827 825 824 822 820 818 815 813 811 809 807 805 802 800 798 796 795 792 790 788 786 783 781 779
804 804 804 804 805 808 812 814 819 828 828 821 819 817 815 825 838 843 841 834 830 833 833 833 836 837 836 837 838 839 840 839 838 838 838 838 839 838 839 840 839 840 841 841 841 841 840 839 839 839 839 838 838 838 837 836 834 833 832 830 829 829 827 825 824 821 819 817 815 813 811 808 806 804 802 800 798 796 794 792 789 787 785 783 781 778
809 810 808 808 811 812 813 819 829 837 831 821 821 822 822 831 839 837 832 831 831 833 834 836 838 837 837 839 839 840 841 840 840 840 839 840 841 840 842 843 842 842 842 842 842 842 841 840 840 840 840 839 839 839 838 837 835 834 833 831 830 829 827 825 823 821 819 817 814 812 810 808 806 804 802 800 798 796 793 791 789 787 784 782 780 778
814 814 811 813 817 818 821 828 836 836 828 820 823 828 829 830 830 829 831 833 833 834 836 839 840 839 839 841 841 841 842 842 842 842 841 842 842 843 844 844 844 844 844 843 844 843 842 842 841 841 841 841 840 840 839 837 836 835 833 832 830 829 827 825 823 821 818 816 814 812 810 808 806 804 801 799 797 795 793 791 789 787 784 782 781 779
818 816 814 818 823 823 825 831 832 828 824 821 823 827 829 829 827 827 831 834 836 837 837 838 841 841 840 841 842 842 842 842 842 843 843 843 843 844 845 845 845 846 845 845 845 845 844 843 842 842 842 841 841 841 839 838 837 835 833 832 830 829 827 825 823 820 818 816 814 811 809 807 805 803 801 799 797 795 793 791 789 787 785 783 782 780
815 812 812 819 824 825 827 829 827 826 826 824 824 826 828 829 830 830 833 837 839 838 838 839 841 841 841 842 842 842 843 842 842 843 844 843 843 845 846 846 846 846 846 846 846 846 845 844 843 843 842 842 841 841 839 838 837 835 834 832 830 828 827 825 823 820 818 816 814 812 809 807 805 803 801 799 798 795 793 791 789 788 786 785 784 782
814 810 813 819 823 828 833 834 829 829 830 828 828 829 830 831 833 833 836 839 840 840 840 841 842 842 842 843 843 844 844 843 842 843 844 844 845 846 846 847 847 847 847 847 847 847 846 845 844 843 842 842 841 840 839 838 836 835 834 832 830 829 827 825 823 820 818 816 814 811 809 807 805 803 801 799 797 795 794 792 790 789 787 786 785 784
815 813 816 821 824 828 834 835 831 830 831 829 830 833 833 834 836 837 837 840 841 841 843 842 842 843 843 844 845 846 845 845 845 845 844 845 846 847 847 847 848 848 848 848 848 848 847 846 845 844 843 842 841 840 839 838 836 835 833 832 830 829 827 825 823 820 818 816 814 812 809 808 806 803 801 800 798 796 794 793 791 790 789 788 787 786
815 816 819 824 829 833 834 834 833 834 836 835 834 835 836 837 839 840 840 841 842 843 844 844 844 845 845 846 847 846 846 847 847 846 846 846 847 848 848 848 848 849 849 849 848 848 847 847 846 844 843 843 842 840 839 837 836 835 833 832 830 829 827 825 823 820 818 816 814 812 810 808 806 804 802 801 799 797 796 794 793 792 791 789 788 788
816 820 820 822 830 834 834 833 834 835 838 839 838 838 839 839 841 842 843 843 844 845 845 846 846 846 846 847 847 846 847 848 848 848 848 848 848 849 849 849 849 849 849 849 848 848 847 847 846 844 843 843 841 840 839 837 835 834 833 832 830 829 827 825 822 820 818 816 814 813 811 809 807 805 803 802 800 798 796 795 794 793 792 791 789 788
821 824 822 821 825 828 828 830 831 832 836 839 838 839 840 840 841 844 845 845 845 846 845 846 846 847 847 848 848 848 847 847 848 848 848 848 849 850 849 850 850 850 849 848 848 848 847 846 846 844 843 842 841 839 838 837 835 834 833 832 830 829 827 825 823 820 818 817 815 814 812 810 808 806 804 803 801 799 797 796 794 793 792 791 790 789